• In Hungary
  • List of Countries
  • For 7 days
  • Water Temperature
  • Satellite Maps
  • Weather Map
  • News
  • Weather Widgets
  • user-avatar
    Login

    Hourly Weather Emona

    Today, 26 September, Wednesday

    Time Temperature Precipitation Wind Pressure Humidity
    00:00 +10°C° 0 mm 6 mps 771 mmHg 50%
    01:00 +10°C° 0 mm 7 mps 772 mmHg 52%
    02:00 +10°C° 0 mm 7 mps 772 mmHg 54%
    03:00 +9°C° 0 mm 7 mps 772 mmHg 55%
    04:00 +9°C° 0 mm 7 mps 772 mmHg 55%
    05:00 +8°C° 0 mm 7 mps 772 mmHg 56%
    06:00 +9°C° 0 mm 8 mps 772 mmHg 54%
    07:00 +10°C° 0 mm 8 mps 773 mmHg 52%
    08:00 +10°C° 0 mm 9 mps 773 mmHg 50%
    09:00 +12°C° 0 mm 9 mps 773 mmHg 45%
    10:00 +13°C° 0 mm 9 mps 773 mmHg 40%
    11:00 +16°C° 0 mm 9 mps 773 mmHg 35%
    12:00 +16°C° 0 mm 9 mps 773 mmHg 33%
    13:00 +17°C° 0 mm 9 mps 772 mmHg 32%
    14:00 +17°C° 0 mm 9 mps 772 mmHg 30%
    15:00 +17°C° 0 mm 9 mps 772 mmHg 32%
    16:00 +16°C° 0 mm 9 mps 772 mmHg 34%
    17:00 +15°C° 0 mm 9 mps 772 mmHg 36%
    18:00 +13°C° 0 mm 9 mps 772 mmHg 39%
    19:00 +12°C° 0 mm 8 mps 772 mmHg 42%
    20:00 +11°C° 0 mm 8 mps 773 mmHg 45%
    21:00 +11°C° 0 mm 8 mps 773 mmHg 45%
    22:00 +10°C° 0 mm 8 mps 773 mmHg 46%
    23:00 +10°C° 0 mm 8 mps 773 mmHg 47%

    Tomorrow, 27 September, Thursday

    Time Temperature Precipitation Wind Pressure Humidity
    00:00 +10°C° 0 mm 8 mps 773 mmHg 47%
    01:00 +9°C° 0 mm 8 mps 773 mmHg 48%
    02:00 +9°C° 0 mm 8 mps 772 mmHg 48%
    03:00 +9°C° 0 mm 8 mps 772 mmHg 50%
    04:00 +8°C° 0 mm 7 mps 772 mmHg 51%
    05:00 +8°C° 0 mm 7 mps 772 mmHg 52%
    06:00 +9°C° 0 mm 7 mps 772 mmHg 49%
    07:00 +9°C° 0 mm 7 mps 772 mmHg 47%
    08:00 +10°C° 0 mm 7 mps 772 mmHg 44%
    09:00 +12°C° 0 mm 7 mps 772 mmHg 43%
    10:00 +15°C° 0 mm 7 mps 772 mmHg 41%
    11:00 +16°C° 0 mm 7 mps 772 mmHg 40%
    12:00 +17°C° 0 mm 7 mps 771 mmHg 40%
    13:00 +18°C° 0 mm 7 mps 771 mmHg 40%
    14:00 +18°C° 0 mm 7 mps 770 mmHg 40%
    15:00 +19°C° 0 mm 6 mps 770 mmHg 41%
    16:00 +19°C° 0 mm 6 mps 769 mmHg 42%
    17:00 +17°C° 0 mm 6 mps 769 mmHg 43%
    18:00 +16°C° 0 mm 5 mps 769 mmHg 48%
    19:00 +14°C° 0 mm 5 mps 769 mmHg 52%
    20:00 +13°C° 0 mm 4 mps 769 mmHg 57%
    21:00 +13°C° 0 mm 4 mps 769 mmHg 57%
    22:00 +12°C° 0 mm 4 mps 769 mmHg 56%
    23:00 +12°C° 0 mm 4 mps 769 mmHg 56%

    Day after tomorrow, 28 September, Friday

    Time Temperature Precipitation Wind Pressure Humidity
    00:00 +11°C° 0 mm 4 mps 769 mmHg 55%
    01:00 +11°C° 0 mm 4 mps 768 mmHg 54%
    02:00 +11°C° 0 mm 4 mps 768 mmHg 53%
    03:00 +10°C° 0 mm 4 mps 767 mmHg 52%
    04:00 +10°C° 0 mm 4 mps 767 mmHg 51%
    05:00 +10°C° 0 mm 4 mps 767 mmHg 51%
    06:00 +11°C° 0 mm 4 mps 767 mmHg 47%
    07:00 +12°C° 0 mm 4 mps 767 mmHg 43%
    08:00 +14°C° 0 mm 4 mps 766 mmHg 40%
    09:00 +17°C° 0 mm 4 mps 766 mmHg 39%
    10:00 +19°C° 0 mm 4 mps 766 mmHg 39%
    11:00 +21°C° 0 mm 4 mps 765 mmHg 39%
    12:00 +21°C° 0 mm 4 mps 765 mmHg 39%
    13:00 +22°C° 0 mm 4 mps 764 mmHg 38%
    14:00 +23°C° 0 mm 4 mps 764 mmHg 38%
    15:00 +22°C° 0 mm 4 mps 763 mmHg 42%
    16:00 +21°C° 0 mm 4 mps 763 mmHg 46%
    17:00 +20°C° 0 mm 4 mps 762 mmHg 50%
    18:00 +19°C° 0 mm 4 mps 762 mmHg 57%
    19:00 +17°C° 0 mm 3 mps 763 mmHg 64%
    20:00 +16°C° 0 mm 2 mps 763 mmHg 71%
    21:00 +15°C° 0 mm 2 mps 763 mmHg 73%
    22:00 +15°C° 0 mm 2 mps 762 mmHg 75%
    23:00 +15°C° 0 mm 2 mps 762 mmHg 77%

    29 September, Saturday

    Time Temperature Precipitation Wind Pressure Humidity
    00:00 +15°C° 0 mm 2 mps 762 mmHg 78%
    01:00 +14°C° 0 mm 2 mps 762 mmHg 79%
    02:00 +14°C° 0 mm 2 mps 762 mmHg 80%
    03:00 +14°C° 0 mm 2 mps 761 mmHg 80%
    04:00 +14°C° 0 mm 2 mps 761 mmHg 81%
    05:00 +14°C° 0 mm 2 mps 761 mmHg 81%
    06:00 +15°C° 0 mm 2 mps 761 mmHg 77%
    07:00 +16°C° 0 mm 2 mps 761 mmHg 73%
    08:00 +18°C° 0 mm 2 mps 760 mmHg 69%
    09:00 +19°C° 0 mm 3 mps 760 mmHg 67%
    10:00 +20°C° 0 mm 3 mps 760 mmHg 65%
    11:00 +22°C° 0 mm 3 mps 760 mmHg 62%
    12:00 +22°C° 0.1 mm 3 mps 760 mmHg 63%
    13:00 +22°C° 0.1 mm 4 mps 760 mmHg 64%
    14:00 +22°C° 0.1 mm 4 mps 759 mmHg 65%
    15:00 +22°C° 0 mm 4 mps 759 mmHg 67%
    16:00 +21°C° 0 mm 4 mps 760 mmHg 69%
    17:00 +21°C° 0 mm 5 mps 760 mmHg 71%
    18:00 +20°C° 0.1 mm 4 mps 760 mmHg 76%
    19:00 +19°C° 0.1 mm 4 mps 760 mmHg 81%
    20:00 +18°C° 0.1 mm 4 mps 761 mmHg 86%
    21:00 +18°C° 0.1 mm 4 mps 761 mmHg 86%
    22:00 +18°C° 0.1 mm 4 mps 761 mmHg 86%
    23:00 +18°C° 0.1 mm 4 mps 761 mmHg 86%

    30 September, Sunday

    Time Temperature Precipitation Wind Pressure Humidity
    00:00 +17°C° 0.2 mm 4 mps 761 mmHg 85%
    01:00 +16°C° 0.2 mm 5 mps 761 mmHg 84%
    02:00 +16°C° 0.2 mm 5 mps 761 mmHg 83%
    03:00 +16°C° 0.4 mm 5 mps 761 mmHg 82%
    04:00 +16°C° 0.4 mm 5 mps 761 mmHg 82%
    05:00 +16°C° 0.4 mm 6 mps 761 mmHg 81%
    06:00 +16°C° 0.3 mm 6 mps 761 mmHg 80%
    07:00 +16°C° 0.3 mm 6 mps 762 mmHg 80%
    08:00 +16°C° 0.3 mm 6 mps 762 mmHg 80%
    09:00 +17°C° 0.1 mm 6 mps 762 mmHg 77%
    10:00 +17°C° 0.1 mm 7 mps 762 mmHg 75%
    11:00 +18°C° 0.1 mm 7 mps 762 mmHg 72%
    12:00 +20°C° 0.1 mm 7 mps 762 mmHg 71%
    13:00 +21°C° 0.1 mm 7 mps 762 mmHg 69%
    14:00 +22°C° 0.1 mm 7 mps 761 mmHg 67%
    15:00 +21°C° 0 mm 7 mps 761 mmHg 69%
    16:00 +21°C° 0 mm 7 mps 761 mmHg 72%
    17:00 +21°C° 0 mm 7 mps 761 mmHg 74%
    18:00 +20°C° 0 mm 7 mps 762 mmHg 77%
    19:00 +18°C° 0 mm 7 mps 762 mmHg 80%
    20:00 +18°C° 0 mm 7 mps 762 mmHg 82%
    21:00 +19°C° 0 mm 6 mps 762 mmHg 84%
    22:00 +17°C° 0 mm 6 mps 761 mmHg 86%
    23:00 +17°C° 0 mm 6 mps 761 mmHg 87%

    1 October, Monday

    Time Temperature Precipitation Wind Pressure Humidity
    00:00 +17°C° 0 mm 6 mps 761 mmHg 87%
    01:00 +17°C° 0 mm 6 mps 760 mmHg 87%
    02:00 +17°C° 0 mm 6 mps 760 mmHg 86%
    03:00 +17°C° 0 mm 6 mps 760 mmHg 87%
    04:00 +17°C° 0 mm 6 mps 760 mmHg 89%
    05:00 +16°C° 0 mm 6 mps 759 mmHg 90%
    06:00 +17°C° 0.1 mm 6 mps 759 mmHg 87%
    07:00 +17°C° 0.1 mm 6 mps 759 mmHg 84%
    08:00 +18°C° 0.1 mm 7 mps 759 mmHg 82%
    09:00 +20°C° 0.1 mm 7 mps 759 mmHg 77%
    10:00 +21°C° 0.1 mm 7 mps 759 mmHg 73%
    11:00 +22°C° 0.1 mm 8 mps 759 mmHg 68%
    12:00 +23°C° 0.3 mm 8 mps 758 mmHg 68%
    13:00 +23°C° 0.3 mm 8 mps 758 mmHg 67%
    14:00 +23°C° 0.3 mm 8 mps 757 mmHg 67%
    15:00 +22°C° 0.7 mm 7 mps 757 mmHg 71%
    16:00 +22°C° 0.7 mm 7 mps 756 mmHg 75%
    17:00 +21°C° 0.7 mm 7 mps 756 mmHg 79%
    18:00 +21°C° 0.9 mm 6 mps 756 mmHg 83%
    19:00 +20°C° 0.9 mm 5 mps 756 mmHg 86%
    20:00 +20°C° 0.9 mm 4 mps 756 mmHg 89%
    21:00 +20°C° 0.7 mm 4 mps 755 mmHg 90%
    22:00 +20°C° 0.7 mm 4 mps 755 mmHg 90%
    23:00 +19°C° 0.7 mm 4 mps 755 mmHg 91%
    Show more